TimeCST,TemperatureF,Dew PointF,Humidity,Sea Level PressureIn,VisibilityMPH,Wind Direction,Wind SpeedMPH,Gust SpeedMPH,PrecipitationIn,Events,Conditions,WindDirDegrees,DateUTC
12:15 AM,26.6,14.0,59,30.24,10.0,SW,3.5,-,N/A,,Clear,220,2013-12-18 06:15:00
12:35 AM,26.6,14.0,59,30.24,10.0,SW,3.5,-,N/A,,Clear,230,2013-12-18 06:35:00
12:55 AM,26.6,12.2,55,30.23,10.0,SW,4.6,-,N/A,,Clear,230,2013-12-18 06:55:00
1:15 AM,23.0,12.2,63,30.23,10.0,SW,3.5,-,N/A,,Clear,220,2013-12-18 07:15:00
1:35 AM,24.8,14.0,64,30.23,10.0,SSW,3.5,-,N/A,,Clear,200,2013-12-18 07:35:00
1:55 AM,26.6,12.2,55,30.23,10.0,SSW,4.6,-,N/A,,Clear,210,2013-12-18 07:55:00
2:15 AM,26.6,14.0,59,30.23,10.0,SSW,5.8,-,N/A,,Clear,200,2013-12-18 08:15:00
2:35 AM,26.6,14.0,59,30.23,10.0,South,5.8,-,N/A,,Clear,190,2013-12-18 08:35:00
2:55 AM,26.6,14.0,59,30.23,10.0,South,5.8,-,N/A,,Clear,180,2013-12-18 08:55:00
3:15 AM,24.8,14.0,64,30.23,10.0,South,5.8,-,N/A,,Clear,180,2013-12-18 09:15:00
3:35 AM,23.0,14.0,68,30.21,10.0,South,6.9,-,N/A,,Clear,170,2013-12-18 09:35:00
3:55 AM,23.0,14.0,68,30.21,10.0,SSE,6.9,-,N/A,,Clear,160,2013-12-18 09:55:00
4:15 AM,24.8,14.0,64,30.20,10.0,South,6.9,-,N/A,,Clear,170,2013-12-18 10:15:00
4:35 AM,23.0,14.0,68,30.20,10.0,South,6.9,-,N/A,,Clear,170,2013-12-18 10:35:00
4:55 AM,23.0,14.0,68,30.19,10.0,South,5.8,-,N/A,,Clear,170,2013-12-18 10:55:00
5:15 AM,21.2,14.0,74,30.19,10.0,South,5.8,-,N/A,,Clear,170,2013-12-18 11:15:00
5:35 AM,23.0,14.0,68,30.18,10.0,SSE,6.9,-,N/A,,Clear,160,2013-12-18 11:35:00
5:55 AM,24.8,14.0,64,30.17,10.0,SSE,6.9,-,N/A,,Clear,160,2013-12-18 11:55:00
6:15 AM,24.8,14.0,64,30.17,10.0,SSE,6.9,-,N/A,,Clear,160,2013-12-18 12:15:00
6:35 AM,24.8,15.8,69,30.16,10.0,SSE,6.9,-,N/A,,Clear,160,2013-12-18 12:35:00
6:55 AM,24.8,15.8,69,30.16,10.0,SSE,5.8,-,N/A,,Clear,160,2013-12-18 12:55:00
7:15 AM,24.8,15.8,69,30.16,10.0,SSE,5.8,-,N/A,,Clear,160,2013-12-18 13:15:00
7:35 AM,24.8,15.8,69,30.14,10.0,SSE,8.1,-,N/A,,Clear,160,2013-12-18 13:35:00
7:55 AM,26.6,15.8,64,30.13,10.0,SSE,8.1,-,N/A,,Clear,160,2013-12-18 13:55:00
8:15 AM,28.4,15.8,59,30.13,10.0,SSE,8.1,-,N/A,,Clear,160,2013-12-18 14:15:00
8:35 AM,30.2,17.6,60,30.13,10.0,South,9.2,-,N/A,,Clear,170,2013-12-18 14:35:00
8:55 AM,32.0,17.6,55,30.12,10.0,South,9.2,-,N/A,,Clear,170,2013-12-18 14:55:00
9:15 AM,32.0,17.6,55,30.11,10.0,South,10.4,-,N/A,,Clear,170,2013-12-18 15:15:00
9:35 AM,33.8,17.6,52,30.11,10.0,South,12.7,-,N/A,,Clear,170,2013-12-18 15:35:00
9:55 AM,35.6,19.4,52,30.10,10.0,South,12.7,-,N/A,,Clear,170,2013-12-18 15:55:00
10:15 AM,37.4,19.4,48,30.09,10.0,South,13.8,-,N/A,,Clear,170,2013-12-18 16:15:00
10:35 AM,37.4,21.2,52,30.07,10.0,South,16.1,20.7,N/A,,Clear,170,2013-12-18 16:35:00
10:55 AM,39.2,21.2,49,30.05,10.0,South,16.1,23.0,0.01,,Clear,170,2013-12-18 16:55:00
11:15 AM,41.0,21.2,45,30.04,10.0,South,16.1,23.0,0.02,,Clear,170,2013-12-18 17:15:00
11:35 AM,41.0,23.0,49,30.02,10.0,South,12.7,19.6,0.03,,Clear,170,2013-12-18 17:35:00
11:55 AM,42.8,23.0,46,30.01,10.0,South,15.0,-,0.06,,Clear,180,2013-12-18 17:55:00
12:15 PM,42.8,23.0,46,29.99,10.0,South,17.3,-,0.02,,Clear,190,2013-12-18 18:15:00
12:35 PM,42.8,23.0,46,29.97,10.0,South,17.3,27.6,0.04,,Clear,180,2013-12-18 18:35:00
12:55 PM,44.6,24.8,46,29.96,10.0,South,17.3,24.2,0.05,,Clear,180,2013-12-18 18:55:00
1:15 PM,44.6,26.6,49,29.95,10.0,South,15.0,20.7,0.01,,Clear,180,2013-12-18 19:15:00
1:35 PM,44.6,26.6,49,29.93,10.0,South,11.5,-,0.01,,Clear,180,2013-12-18 19:35:00
1:55 PM,46.4,26.6,46,29.92,10.0,South,16.1,-,0.01,,Clear,180,2013-12-18 19:55:00
2:15 PM,46.4,28.4,50,29.90,10.0,South,15.0,21.9,N/A,,Clear,180,2013-12-18 20:15:00
2:35 PM,46.4,28.4,50,29.90,10.0,South,15.0,20.7,N/A,,Clear,180,2013-12-18 20:35:00
2:55 PM,46.4,28.4,50,29.89,10.0,South,13.8,-,N/A,,Clear,180,2013-12-18 20:55:00
3:15 PM,46.4,30.2,53,29.88,10.0,South,13.8,-,N/A,,Clear,180,2013-12-18 21:15:00
3:35 PM,48.2,30.2,50,29.87,10.0,South,12.7,18.4,N/A,,Clear,180,2013-12-18 21:35:00
3:55 PM,46.4,30.2,53,29.87,10.0,South,10.4,-,N/A,,Clear,170,2013-12-18 21:55:00
4:15 PM,46.4,30.2,53,29.87,10.0,South,11.5,-,N/A,,Clear,170,2013-12-18 22:15:00
4:35 PM,44.6,30.2,57,29.86,10.0,South,10.4,-,N/A,,Clear,170,2013-12-18 22:35:00
4:55 PM,44.6,30.2,57,29.85,10.0,South,10.4,16.1,N/A,,Clear,170,2013-12-18 22:55:00
5:15 PM,44.6,30.2,57,29.85,10.0,South,10.4,-,N/A,,Clear,170,2013-12-18 23:15:00
5:35 PM,44.6,30.2,57,29.85,10.0,South,10.4,-,N/A,,Clear,180,2013-12-18 23:35:00
5:55 PM,44.6,30.2,57,29.85,10.0,South,12.7,-,N/A,,Clear,180,2013-12-18 23:55:00
6:15 PM,44.6,30.2,57,29.86,10.0,South,12.7,-,N/A,,Clear,180,2013-12-19 00:15:00
6:35 PM,44.6,30.2,57,29.86,10.0,South,11.5,-,N/A,,Clear,180,2013-12-19 00:35:00
6:55 PM,44.6,30.2,57,29.86,10.0,South,13.8,-,N/A,,Clear,190,2013-12-19 00:55:00
7:15 PM,44.6,30.2,57,29.86,10.0,South,16.1,-,N/A,,Clear,190,2013-12-19 01:15:00
7:35 PM,44.6,30.2,57,29.86,10.0,South,17.3,23.0,N/A,,Clear,190,2013-12-19 01:35:00
7:55 PM,44.6,30.2,57,29.86,10.0,South,17.3,21.9,N/A,,Clear,190,2013-12-19 01:55:00
8:15 PM,44.6,30.2,57,29.86,10.0,South,17.3,20.7,N/A,,Clear,190,2013-12-19 02:15:00
8:35 PM,44.6,30.2,57,29.86,10.0,South,16.1,24.2,N/A,,Clear,190,2013-12-19 02:35:00
9:15 PM,44.6,30.2,57,29.85,10.0,South,15.0,-,N/A,,Clear,190,2013-12-19 03:15:00
9:35 PM,44.6,30.2,57,29.86,10.0,South,12.7,19.6,N/A,,Clear,180,2013-12-19 03:35:00
9:55 PM,42.8,30.2,61,29.86,10.0,South,13.8,-,N/A,,Clear,180,2013-12-19 03:55:00
10:15 PM,42.8,32.0,66,29.86,10.0,South,11.5,-,N/A,,Clear,180,2013-12-19 04:15:00
10:35 PM,42.8,32.0,66,29.86,10.0,South,10.4,-,N/A,,Clear,180,2013-12-19 04:35:00
10:55 PM,42.8,32.0,66,29.86,10.0,South,10.4,-,N/A,,Clear,180,2013-12-19 04:55:00
11:15 PM,42.8,32.0,66,29.87,10.0,South,10.4,-,N/A,,Clear,180,2013-12-19 05:15:00
11:35 PM,42.8,32.0,66,29.87,10.0,South,11.5,-,N/A,,Clear,190,2013-12-19 05:35:00
11:55 PM,42.8,32.0,66,29.87,10.0,South,12.7,17.3,N/A,,Clear,190,2013-12-19 05:55:00